Weather History for Fullerton, CA

Change the Weather History Date:

Tuesday, February 11, 2014

  Actual Average Record
Temperature  
Mean Temperature 64 °F 58 °F  
Max Temperature 77 °F 68 °F 80 °F (2002)
Min Temperature 51 °F 47 °F 37 °F (1999)
Degree Days  
Heating Degree Days 1 8  
Month to date heating degree days 80 88  
Since 1 July heating degree days 463 805  
Cooling Degree Days 0 0  
Month to date cooling degree days 0 0  
Year to date cooling degree days 14 4  
Growing Degree Days 13 (Base 50)    
Moisture  
Dew Point 51 °F    
Average Humidity 68    
Maximum Humidity 100    
Minimum Humidity 36    
Precipitation  
Precipitation 0.00 in 0.13 in 1.33 in (2005)
Month to date precipitation 0.23 1.08  
Year to date precipitation 0.25 4.11  
Since 1 July precipitation 1.56 8.34  
Snow  
Snow 0.00 in - - ()
Month to date snowfall 0.0  
Year to date snowfall 0.0  
Since 1 July snowfall 0.0  
Snow Depth 0.00 in    
Sea Level Pressure  
Sea Level Pressure 30.05 in    
Wind  
Wind Speed 1 mph (WSW)    
Max Wind Speed 12 mph    
Max Gust Speed 14 mph    
Visibility 5 miles    
Events Fog    
T = Trace of Precipitation, MM = Missing Value Source: NWS Daily Summary

Daily Weather History Graph

Daily Weather History Graph

Search for Another Location

Airport:

Trip Planner

Search our weather history database for the weather conditions in past years. The results will help you decide how hot, cold, wet, or windy it might be!

Date:

Astronomy

Feb. 11, 2014 Rise Set
Actual Time 6:40 AM PST 5:32 PM PST
Civil Twilight 6:14 AM PST 5:58 PM PST
Nautical Twilight 5:45 AM PST 6:27 PM PST
Astronomical Twilight 5:16 AM PST 6:56 PM PST
Moon 3:00 PM PST (2/11) 4:16 AM PST (2/11)
Length of Visible Light 11h 43m
Length of Day
10h 52m
Waxing Gibbous, 91% of the Moon is Illuminated
Feb 11
Waxing Gibbous
Feb 14
Full
Feb 22
Last Quarter
Mar 1
New
Mar 8
First Quarter

Hourly Weather History & Observations

Time (PST) Temp. Dew Point Humidity Pressure Visibility Wind Dir Wind Speed Gust Speed Precip Events Conditions
12:53 AM 54.0 °F 50.0 °F 86% 30.06 in 10.0 mi Calm Calm - N/A   Clear
1:41 AM 51.8 °F 48.2 °F 88% 30.05 in 10.0 mi Calm Calm - N/A   Partly Cloudy
1:53 AM 52.0 °F 48.9 °F 89% 30.05 in 10.0 mi Calm Calm - N/A   Partly Cloudy
2:08 AM 51.8 °F 48.2 °F 88% 30.05 in 9.0 mi Calm Calm - N/A   Mostly Cloudy
2:27 AM 53.6 °F 50.0 °F 88% 30.05 in 9.0 mi Calm Calm - N/A   Overcast
2:53 AM 54.0 °F 51.1 °F 90% 30.04 in 7.0 mi Calm Calm - N/A   Overcast
3:29 AM 53.6 °F 51.8 °F 94% 30.04 in 1.8 mi Calm Calm - N/A   Overcast
3:43 AM 53.6 °F 51.8 °F 94% 30.04 in 0.5 mi Calm Calm - N/A Fog Fog
3:53 AM 54.0 °F 53.1 °F 97% 30.04 in 0.2 mi Calm Calm - N/A Fog Fog
4:53 AM 53.1 °F 52.0 °F 96% 30.03 in 0.2 mi Calm Calm - N/A Fog Fog
5:21 AM 51.8 °F 50.0 °F 94% 30.03 in 2.0 mi NNW 3.5 mph - N/A   Overcast
5:34 AM 51.8 °F 50.0 °F 94% 30.04 in 0.8 mi Calm Calm - N/A   Overcast
5:53 AM 51.1 °F 50.0 °F 96% 30.04 in 0.2 mi Calm Calm - N/A Fog Fog
6:53 AM 52.0 °F 51.1 °F 97% 30.06 in 0.2 mi Calm Calm - N/A Fog Fog
7:53 AM 52.0 °F 51.1 °F 97% 30.08 in 0.2 mi Calm Calm - N/A Fog Fog
8:53 AM 53.1 °F 52.0 °F 96% 30.09 in 0.8 mi Calm Calm - N/A   Overcast
9:34 AM 53.6 °F 51.8 °F 94% 30.09 in 1.2 mi Calm Calm - N/A   Overcast
9:50 AM 53.6 °F 51.8 °F 94% 30.09 in 2.0 mi Calm Calm - N/A   Overcast
9:53 AM 54.0 °F 52.0 °F 93% 30.09 in 2.0 mi Calm Calm - N/A   Overcast
10:13 AM 57.2 °F 51.8 °F 82% 30.09 in 3.0 mi Calm Calm - N/A   Clear
10:53 AM 63.0 °F 52.0 °F 67% 30.09 in 3.0 mi Calm Calm - N/A   Clear
11:53 AM 69.1 °F 51.1 °F 53% 30.06 in 6.0 mi Calm Calm - N/A   Haze
12:53 PM 75.0 °F 46.9 °F 37% 30.04 in 8.0 mi Calm Calm - N/A   Clear
1:53 PM 72.0 °F 55.0 °F 55% 30.02 in 4.0 mi SW 8.1 mph - N/A   Haze
2:53 PM 73.9 °F 51.1 °F 45% 30.01 in 8.0 mi WNW 4.6 mph - N/A   Clear
3:53 PM 73.9 °F 48.9 °F 41% 30.01 in 10.0 mi Variable 3.5 mph - N/A   Clear
4:53 PM 72.0 °F 46.9 °F 41% 30.01 in 8.0 mi Calm Calm - N/A   Clear
5:53 PM 66.0 °F 54.0 °F 65% 30.02 in 10.0 mi South 3.5 mph - N/A   Clear
6:53 PM 62.1 °F 52.0 °F 70% 30.04 in 9.0 mi Calm Calm - N/A   Clear
7:53 PM 60.1 °F 53.1 °F 78% 30.06 in 9.0 mi Calm Calm - N/A   Clear
8:53 PM 59.0 °F 54.0 °F 83% 30.07 in 7.0 mi Calm Calm - N/A   Clear
9:53 PM 57.0 °F 53.1 °F 87% 30.08 in 6.0 mi Calm Calm - N/A   Clear
10:53 PM 55.0 °F 52.0 °F 89% 30.09 in 5.0 mi Calm Calm - N/A   Clear
11:53 PM 54.0 °F 51.1 °F 90% 30.08 in 5.0 mi Calm Calm - N/A   Clear